User: anonymous   Login
Location: Unspecified
(0.0000°N, 0.0000°E)
Time: 02:22:13
(UTC+00:00)
Language:

S-56A Canister/Altair - Orbit

View from above orbital plane
View from above orbital plane
View from above satellite
View from above satellite

Ground track
Ground track

The orbit data is extracted from the following two-line orbital elements,

1    82U 61004B   16173.43929862 +.00000038 +00000-0 +57348-4 0  9994
2    82 038.8585 191.8614 1167856 253.3049 093.6466 12.25765150628979
Epoch (UTC): 21 June 2016 10:32:35
Eccentricity: 0.1167856
inclination: 38.8585°
perigee height: 639 km
apogee height: 2495 km
right ascension of ascending node: 191.8614°
argument of perigee: 253.3049°
revolutions per day: 12.25765150
mean anomaly at epoch: 93.6466°
orbit number at epoch: 62897

The dashed part of the orbit path shows where the satellite is in the earth's shadow,  

DLR